This is the latest recevied weather packets stored in our database for station/object KB4MOX. If no packets are shown the sender has not sent any weather packets the latest 10 day(s).
| Time | Temp. | Humidity | Pressure | Rain* | Wind** | Luminosity | Snow |
|---|---|---|---|---|---|---|---|
| 1787527070 | 34.44° C | 49% | 1013.5 hPa | 0 mm | - | 60 W/m² | - |
| 1787526764 | 34.44° C | 47% | 1013.6 hPa | 0 mm | - | 72 W/m² | - |
| 1787526461 | 34.44° C | 47% | 1013.3 hPa | 0 mm | - | 77 W/m² | - |
| 1787526158 | 34.44° C | 46% | 1013.5 hPa | 0 mm | - | 86 W/m² | - |
| 1787525853 | 35° C | 47% | 1013.2 hPa | 0 mm | - | 67 W/m² | - |
| 1787525548 | 35° C | 46% | 1013.5 hPa | 0 mm | - | 94 W/m² | - |
| 1787525243 | 35° C | 46% | 1013.5 hPa | 0 mm | - | 110 W/m² | - |
| 1787524940 | 35° C | 47% | 1013.3 hPa | 0 mm | - | 114 W/m² | - |
| 1787524634 | 34.44° C | 47% | 1013.4 hPa | 0 mm | - | 131 W/m² | - |
| 1787524330 | 34.44° C | 47% | 1013.2 hPa | 0 mm | - | 142 W/m² | - |
| 1787524025 | 34.44° C | 47% | 1013.3 hPa | 0 mm | - | 160 W/m² | - |
| 1787523722 | 35° C | 46% | 1013.2 hPa | 0 mm | - | 170 W/m² | - |
| 1787523421 | 35° C | 45% | 1013.4 hPa | 0 mm | - | 178 W/m² | - |
| 1787523116 | 35.56° C | 45% | 1013.3 hPa | 0 mm | - | 203 W/m² | - |
| 1787522812 | 35° C | 45% | 1013.4 hPa | 0 mm | - | 216 W/m² | - |
| 1787522508 | 34.44° C | 47% | 1013.3 hPa | 0 mm | - | 243 W/m² | - |
| 1787522203 | 33.33° C | 48% | 1013.4 hPa | 0 mm | - | 255 W/m² | - |
| 1787521903 | 33.33° C | 48% | 1013.4 hPa | 0 mm | - | 118 W/m² | - |
| 1787521601 | 33.33° C | 48% | 1013.4 hPa | 0 mm | - | 56 W/m² | - |
| 1787521301 | 33.89° C | 47% | 1013.1 hPa | 0 mm | - | 62 W/m² | - |
| 1787520996 | 34.44° C | 45% | 1013.4 hPa | 0 mm | - | 65 W/m² | - |
| 1787520692 | 35° C | 43% | 1013.3 hPa | 0 mm | - | 82 W/m² | - |
| 1787520392 | 35° C | 42% | 1013.2 hPa | 0 mm | - | 77 W/m² | - |
| 1787520088 | 35.56° C | 42% | 1013.4 hPa | 0 mm | - | 368 W/m² | - |
| 1787519783 | 35.56° C | 42% | 1013.3 hPa | 0 mm | - | 382 W/m² | - |
* Rain latest hour (hover to see other rain measurements)
** Current wind speed in m/s (hover to see current wind gust speed)